Погода в Ингульце

Украина / Днепропетровская область     47°40′44″N   33°10′13″E
темп.,
°C
ветер,
м/с
пор.,
м/с
влажн.,
%
обл.,
%
осадки,
мм/ч
давл.,
гПа
погр.,
м
18 апреля, вс
вс1800:00+7вюв1170100 0.0 101911
03:00+6вюв017399 0.0 101910
06:00+5ссз118122 0.0 101910
09:00+10зсз0159100 0.0 1018400
12:00+13зюз2336100 0.0 10181439
15:00+15зюз333560 0.0 10171781
18:00+15з1241100 0.0 10161725
21:00+12в2354100 0.0 1017116
19 апреля, пн
пн1900:00+12ссв3459100 0.0 1017136
03:00+10всв2365100 0.0 1017126
06:00+8всв3474100 0.0 1017107
09:00+11всв4462100 0.0 1017542
12:00+14всв435195 0.1 10161434
15:00+15всв224992 0.2 10151521
18:00+14св4658100 0.1 1014706
21:00+12всв376099 0.1 1014253
20 апреля, вт
вт2000:00+11св4959100 0.0 1012253
03:00+10св51160100 0.0 1009352
06:00+9св61278100 1.0 1006530
09:00+8ссв81492100 7.9 1002646
12:00+8ссв91493100 10.6 1000839
15:00+8с81392100 13.8 998809
18:00+8ссз91387100 2.2 10001166
21:00+8сз81587100 3.1 10041310
21 апреля, ср
ср2100:00+8зсз71379100 0.3 1007706
03:00+6з51185100 0.3 1010447
06:00+4з3886100 0.0 1013230
09:00+8зсз6963100 0.0 10151000
12:00+12з5751100 0.0 10161664
15:00+13зюз5750100 0.0 10171783
18:00+13зюз455899 0.1 1017860
21:00+11юз2473100 0.4 1019107
22 апреля, чт
чт2200:00+8ююз357988 0.2 1020144
03:00+7ю349119 0.2 102087
06:00+6ююв3694100 0.0 1021137
09:00+9ю4884100 0.0 1022311
12:00+14ююз565965 0.0 10221161
15:00+15ююз6753100 1.3 10211669
18:00+14ю466433 0.4 1021914
21:00+10ююз358152 0.5 102290